User: anonymous   Login
Location: Bonneuil
(46.1010°N, 2.9693°E)
Time: 21:14:55
(UTC+00:00)
Language:

Cosmos 2208 Rocket - Orbit

View from above orbital plane
View from above orbital plane
View from above satellite
View from above satellite

Ground track
Ground track

The orbit data is extracted from the following two-line orbital elements,

1 22081U 92053B   20184.76028182 -.00000050  00000-0 -83915-5 0  9999
2 22081  74.0416 206.3267 0037244 263.6462  96.0447 14.33481276458110
Epoch (UTC): 02 July 2020 18:14:48
Eccentricity: 0.0037244
inclination: 74.0416°
perigee height: 753 km
apogee height: 807 km
right ascension of ascending node: 206.3267°
argument of perigee: 263.6462°
revolutions per day: 14.33481276
mean anomaly at epoch: 96.0447°
orbit number at epoch: 45811

The dashed part of the orbit path shows where the satellite is in the earth's shadow,  

DLR